This demonstration page uses our WeatherBlox Daily Observations layout. Learn more.

Left ArrowRight Arrow

34.16533, -84.80231

Hourly Observations for July 5, 2017

Temp ( °F °C ) Dew Point ( °F °C ) Humidity (%) Winds ( mph kmh ) Pressure ( in mb ) Visibility ( mi km ) Precip ( " mm )
1:14 am 01:14 Mostly Clear with Mist and Fog 70 21.1 70 21.1 100 100 Calm 30.09 1019 2 3 0.00 0.00
1:37 am 01:37 Mostly Cloudy with Mist and Fog 71 21.7 71 21.7 100 100 Calm 30.09 1019 2 3 0.00 0.00
1:46 am 01:46 Mostly Cloudy with Mist and Fog 71 21.7 71 21.7 100 100 Calm 30.09 1019 3 4 0.00 0.00
1:53 am 01:53 Mostly Cloudy with Mist and Fog 71 21.7 71 21.7 100 100 Calm 30.07 1018 3 4 0.00 0.00
2:05 am 02:05 Mostly Cloudy with Mist and Fog 71 21.7 71 21.7 100 100 Calm 30.09 1019 2 3 0.00 0.00
2:18 am 02:18 Mostly Cloudy with Mist and Fog 71 21.7 71 21.7 100 100 Calm 30.09 1019 2 3 0.00 0.00
2:34 am 02:34 Mostly Cloudy with Mist and Fog 71 21.7 71 21.7 100 100 Calm 30.09 1019 2 3 0.00 0.00
2:53 am 02:53 Mostly Cloudy with Mist and Fog 71 21.7 71 21.7 100 100 Calm 30.07 1018 2 3 0.00 0.00
3:17 am 03:17 Mostly Clear with Mist and Fog 70 21.1 70 21.1 100 100 Calm 30.09 1019 2 3 0.00 0.00
3:53 am 03:53 Mostly Clear with Mist and Fog 70 21.1 70 21.1 100 100 Calm 30.08 1019 2 3 0.00 0.00
4:02 am 04:02 Mostly Clear with Mist and Fog 70 21.1 70 21.1 100 100 Calm 30.09 1019 2 3 0.00 0.00
4:14 am 04:14 Mostly Clear with Mist and Fog 69 20.6 69 20.6 100 100 Calm 30.09 1019 2 3 0.00 0.00
4:40 am 04:40 Clear with Mist and Fog 71 21.7 71 21.7 100 100 Calm 30.09 1019 3 5 0.00 0.00
4:51 am 04:51 Clear with Mist and Fog 70 21 70 21 100 100 Calm 30.09 1019 3 4 0.00 0.00
4:53 am 04:53 Clear with Mist and Fog 70 21.1 70 21.1 100 100 Calm 30.08 1019 3 4 0.00 0.00
5:35 am 05:35 Mostly Clear with Mist and Fog 69 20.6 69 20.6 100 100 Calm 30.09 1019 2 3 0.00 0.00
5:42 am 05:42 Mostly Clear with Mist and Fog 69 20.6 69 20.6 100 100 Calm 30.09 1019 2 3 0.00 0.00
5:49 am 05:49 Mostly Clear with Mist and Fog 70 21 70 21 100 100 Calm 30.09 1019 2 3 0.00 0.00
5:53 am 05:53 Mostly Clear with Mist and Fog 70 21.1 70 21.1 100 100 Calm 30.10 1019 3 4 0.00 0.00
6:05 am 06:05 Clear with Mist and Fog 69 20.6 69 20.6 100 100 Calm 30.09 1019 3 5 0.00 0.00
6:20 am 06:20 Clear with Mist and Fog 69 20.6 69 20.6 100 100 Calm 30.09 1019 2 3 0.00 0.00
6:51 am 06:51 Sunny with Mist and Fog 70 21 70 21 100 100 Calm 30.12 1020 2 3 0.00 0.00
6:53 am 06:53 Sunny with Mist and Fog 68 20 68 20 100 100 Calm 30.11 1020 2 3 0.00 0.00
7:24 am 07:24 Sunny with Mist and Fog 70 21.1 70 21.1 100 100 Calm 30.12 1020 2 3 0.00 0.00
7:53 am 07:53 Sunny with Mist and Fog 72 22.2 72 22.2 100 100 Calm 30.12 1020 4 6 0.00 0.00
8:53 am 08:53 Sunny 78 25.6 75 23.9 90 90 Calm 30.12 1020 7 11 0.00 0.00
9:53 am 09:53 Sunny 80 26.7 76 24.4 87 87 Calm 30.13 1020 10 16 0.00 0.00
10:53 am 10:53 Sunny 84 28.9 77 25 80 80 VRB 3 6 30.13 1020 10 16 0.00 0.00
11:53 am 11:53 Sunny 87 30.6 78 25.6 75 75 VRB 3 6 30.13 1020 10 16 0.00 0.00
12:53 pm 12:53 Mostly Sunny 86 30 74 23.3 67 67 SSW 6 9 30.11 1020 10 16 0.00 0.00
1:53 pm 13:53 Mostly Cloudy 86 30 76 24.4 72 72 Calm 30.11 1020 10 16 0.00 0.00
2:45 pm 14:45 Partly Cloudy with Nearby Thunderstorms 87 30.6 77 25 72 72 S 3 6 30.06 1018 10 16 0.01 0.25
2:53 pm 14:53 Sunny with Thunderstorms 88 31.1 77 25 70 70 VRB 5 7 30.10 1019 10 16 0.01 0.25
3:31 pm 15:31 Sunny with Nearby Thunderstorms 80 26.7 70 21.1 71 71 Calm 30.09 1019 10 16 0.00 0.00
3:39 pm 15:39 Sunny 79 26.1 71 21.7 77 77 Calm 30.09 1019 10 16 0.00 0.00
3:53 pm 15:53 Sunny 80 26.7 71 21.7 74 74 Calm 30.10 1019 10 16 0.00 0.00
4:53 pm 16:53 Sunny 85 29.4 74 23.3 70 70 Calm 30.11 1020 10 16 0.00 0.00
5:53 pm 17:53 Sunny 85 29.4 76 24.4 75 75 VRB 3 6 30.10 1019 10 16 0.00 0.00
6:11 pm 18:11 Partly Cloudy with Nearby Thunderstorms 84 28.9 75 23.9 74 74 NNW 3 6 30.06 1018 10 16 0.00 0.00
6:36 pm 18:36 Sunny with Thunderstorms 83 28.3 75 23.9 77 77 VRB 3 6 30.06 1018 10 16 0.00 0.00
6:51 pm 18:51 Partly Cloudy with Nearby Thunderstorms 81 27 75 24 84 84 VRB 5 7 30.09 1019 10 16 0.00 0.03
6:53 pm 18:53 Partly Cloudy with Nearby Thunderstorms 80 26.7 74 23.3 82 82 S 6 9 30.10 1019 10 16 0.00 0.03
7:16 pm 19:16 Partly Cloudy with Light Rain 75 23.9 70 21.1 84 84 Calm 30.09 1019 10 16 0.00 0.03
7:53 pm 19:53 Mostly Sunny 74 23.3 69 20.6 85 85 Calm 30.10 1019 10 16 0.00 0.03
8:53 pm 20:53 Sunny 73 22.8 71 21.7 94 94 Calm 30.09 1019 10 16 0.00 0.00
9:53 pm 21:53 Clear 71 21.7 71 21.7 100 100 Calm 30.09 1019 10 16 0.00 0.00
10:53 pm 22:53 Clear 70 21.1 70 21.1 100 100 Calm 30.09 1019 10 16 0.00 0.00
11:53 pm 23:53 Clear 70 21.1 70 21.1 100 100 Calm 30.10 1019 10 16 0.00 0.00

Powered by AerisWeather